| time (UTC) | temp C | wind direction | speed KPH | gust KPH | rain 1hr cm | rain 24hr cm | rain mn cm | humidity % | barometer mb |
| 20260906212015 | 26 | 68 | 3.2 | 6.4 | 0.00 | 0.86 | 0.53 | 78 | 1013.5 |
| 20260906211017 | 26 | 68 | 3.2 | 11.3 | 0.00 | 0.86 | 0.53 | 77 | 1013.6 |
| 20260906210017 | 26 | 113 | 3.2 | 6.4 | 0.00 | 0.86 | 0.53 | 84 | 1013.7 |
| 20260906205017 | 26 | 90 | 1.6 | 4.8 | 0.08 | 0.86 | 0.53 | 83 | 1013.6 |
| 20260906204017 | 26 | 113 | 4.8 | 16.1 | 0.46 | 0.86 | 0.53 | 81 | 1013.4 |
| 20260906203015 | 27 | 0 | 3.2 | 6.4 | 0.48 | 0.86 | 0.53 | 85 | 1013.4 |
| 20260906202017 | 27 | 0 | 3.2 | 8.0 | 0.48 | 0.86 | 0.53 | 82 | 1013.6 |
| 20260906201017 | 27 | 0.0 | 1.6 | 0.48 | 0.86 | 0.53 | 87 | 1013.4 | |
| 20260906200017 | 27 | 338 | 1.6 | 3.2 | 0.48 | 0.86 | 0.53 | 90 | 1013.4 |
| 20260906195037 | 27 | 225 | 4.8 | 11.3 | 0.41 | 0.79 | 0.46 | 77 | 1013.7 |
| 20260906194017 | 30 | 0 | 3.2 | 6.4 | 0.03 | 0.41 | 0.08 | 69 | 1013.9 |
| 20260906193017 | 31 | 293 | 3.2 | 8.0 | 0.00 | 0.38 | 0.05 | 65 | 1013.8 |
| 20260906192017 | 30 | 23 | 3.2 | 6.4 | 0.00 | 0.38 | 0.05 | 68 | 1013.9 |
| 20260906191017 | 30 | 90 | 1.6 | 4.8 | 0.00 | 0.38 | 0.05 | 68 | 1013.8 |
| 20260906190057 | 30 | 0.0 | 1.6 | 0.00 | 0.38 | 0.05 | 70 | 1013.9 | |
| 20260906185020 | 31 | 0 | 3.2 | 8.0 | 0.00 | 0.38 | 0.05 | 64 | 1014.0 |
| 20260906184037 | 32 | 0 | 1.6 | 6.4 | 0.00 | 0.38 | 0.05 | 66 | 1014.2 |
| 20260906183017 | 31 | 45 | 3.2 | 6.4 | 0.00 | 0.38 | 0.05 | 62 | 1014.2 |
| 20260906182017 | 31 | 180 | 3.2 | 6.4 | 0.00 | 0.38 | 0.05 | 64 | 1014.4 |
| 20260906181017 | 31 | 0 | 3.2 | 8.0 | 0.00 | 0.38 | 0.05 | 62 | 1014.4 |
| 20260906180017 | 31 | 225 | 1.6 | 4.8 | 0.00 | 0.38 | 0.05 | 64 | 1014.6 |
| 20260906175017 | 31 | 203 | 3.2 | 4.8 | 0.00 | 0.38 | 0.05 | 62 | 1014.7 |
| 20260906174037 | 31 | 315 | 4.8 | 11.3 | 0.00 | 0.38 | 0.05 | 63 | 1014.9 |
| 20260906173017 | 30 | 315 | 4.8 | 11.3 | 0.00 | 0.38 | 0.05 | 63 | 1014.9 |
| 20260906172017 | 30 | 293 | 3.2 | 8.0 | 0.00 | 0.38 | 0.05 | 65 | 1014.9 |
| 20260906171017 | 30 | 338 | 3.2 | 11.3 | 0.00 | 0.38 | 0.05 | 65 | 1015.1 |
| 20260906170017 | 30 | 270 | 3.2 | 6.4 | 0.00 | 0.38 | 0.05 | 67 | 1015.2 |
| 20260906165017 | 29 | 0.0 | 3.2 | 0.00 | 0.38 | 0.05 | 71 | 1015.4 | |
| 20260906164017 | 28 | 0 | 4.8 | 9.7 | 0.00 | 0.38 | 0.05 | 69 | 1015.5 |
| 20260906163057 | 28 | 293 | 3.2 | 12.9 | 0.00 | 0.38 | 0.05 | 70 | 1015.6 |
| 20260906162017 | 28 | 293 | 1.6 | 6.4 | 0.00 | 0.38 | 0.05 | 71 | 1015.7 |
| 20260906161017 | 28 | 315 | 1.6 | 4.8 | 0.00 | 0.38 | 0.05 | 72 | 1015.8 |
| 20260906160017 | 28 | 0 | 3.2 | 9.7 | 0.00 | 0.38 | 0.05 | 73 | 1015.9 |
| 20260906155057 | 28 | 338 | 3.2 | 6.4 | 0.00 | 0.38 | 0.05 | 72 | 1015.9 |
| 20260906154017 | 28 | 90 | 1.6 | 4.8 | 0.00 | 0.38 | 0.05 | 72 | 1015.8 |
| 20260906153037 | 28 | 0 | 3.2 | 6.4 | 0.00 | 0.38 | 0.05 | 76 | 1015.8 |
| 20260906152039 | 28 | 315 | 3.2 | 6.4 | 0.00 | 0.38 | 0.05 | 73 | 1015.7 |
| 20260906151017 | 27 | 338 | 3.2 | 8.0 | 0.00 | 0.38 | 0.05 | 74 | 1015.6 |
| 20260906150017 | 27 | 293 | 1.6 | 6.4 | 0.00 | 0.38 | 0.05 | 76 | 1015.6 |
| 20260906145017 | 27 | 0 | 1.6 | 3.2 | 0.00 | 0.38 | 0.05 | 79 | 1015.7 |
| 20260906144016 | 26 | 0 | 3.2 | 6.4 | 0.00 | 0.38 | 0.05 | 80 | 1015.7 |
| 20260906143016 | 26 | 315 | 1.6 | 6.4 | 0.00 | 0.38 | 0.05 | 83 | 1015.9 |
| 20260906142017 | 26 | 203 | 3.2 | 8.0 | 0.00 | 0.38 | 0.05 | 86 | 1015.8 |
| 20260906141017 | 25 | 225 | 1.6 | 4.8 | 0.00 | 0.38 | 0.05 | 88 | 1015.6 |
| 20260906140056 | 25 | 225 | 3.2 | 4.8 | 0.00 | 0.38 | 0.05 | 91 | 1015.8 |
| 20260906135016 | 24 | 203 | 1.6 | 4.8 | 0.00 | 0.38 | 0.05 | 94 | 1015.7 |
| 20260906134016 | 23 | 225 | 1.6 | 3.2 | 0.00 | 0.38 | 0.05 | 96 | 1015.8 |
| 20260906133016 | 23 | 225 | 1.6 | 3.2 | 0.00 | 0.38 | 0.05 | 96 | 1015.9 |
| 20260906132016 | 22 | 203 | 3.2 | 6.4 | 0.00 | 0.38 | 0.05 | 96 | 1015.9 |
| 20260906131016 | 22 | 180 | 1.6 | 4.8 | 0.00 | 0.38 | 0.05 | 96 | 1015.8 |
| 20260906130036 | 22 | 203 | 1.6 | 6.4 | 0.03 | 0.38 | 0.05 | 96 | 1015.7 |
| 20260906125016 | 22 | 225 | 3.2 | 6.4 | 0.03 | 0.38 | 0.05 | 97 | 1015.7 |
| 20260906124016 | 21 | 0.0 | 3.2 | 0.03 | 0.38 | 0.05 | 96 | 1015.4 | |
| 20260906123016 | 21 | 180 | 1.6 | 3.2 | 0.03 | 0.38 | 0.05 | 97 | 1015.4 |
| 20260906122016 | 21 | 0.0 | 1.6 | 0.03 | 0.38 | 0.05 | 96 | 1015.0 | |
| 20260906121036 | 20 | 0.0 | 0.0 | 0.03 | 0.38 | 0.05 | 96 | 1014.8 | |
| 20260906120117 | 20 | 0.0 | 0.0 | 0.00 | 0.36 | 0.03 | 96 | 1014.7 | |
| 20260906115017 | 20 | 203 | 1.6 | 1.6 | 0.00 | 0.36 | 0.03 | 96 | 1014.5 |
| 20260906114016 | 20 | 0.0 | 1.6 | 0.00 | 0.36 | 0.03 | 96 | 1014.4 | |
| 20260906113016 | 20 | 0.0 | 3.2 | 0.00 | 0.36 | 0.03 | 96 | 1014.5 | |
| 20260906112016 | 20 | 0.0 | 0.0 | 0.00 | 0.36 | 0.03 | 96 | 1014.4 | |
| 20260906111036 | 20 | 0.0 | 1.6 | 0.00 | 0.36 | 0.03 | 96 | 1014.5 | |
| 20260906110036 | 20 | 0.0 | 3.2 | 0.00 | 0.36 | 0.03 | 96 | 1014.5 | |
| 20260906105016 | 20 | 0.0 | 1.6 | 0.00 | 0.36 | 0.03 | 96 | 1014.5 | |
| 20260906104016 | 20 | 0.0 | 3.2 | 0.00 | 0.36 | 0.03 | 96 | 1014.5 | |
| 20260906103016 | 20 | 0.0 | 3.2 | 0.00 | 0.36 | 0.03 | 96 | 1014.6 | |
| 20260906102016 | 20 | 0.0 | 0.0 | 0.00 | 0.36 | 0.03 | 96 | 1014.5 | |
| 20260906101017 | 20 | 0.0 | 1.6 | 0.00 | 0.36 | 0.03 | 96 | 1014.4 | |
| 20260906100036 | 20 | 0.0 | 0.0 | 0.00 | 0.36 | 0.03 | 96 | 1014.4 | |
| 20260906095016 | 20 | 0.0 | 0.0 | 0.00 | 0.36 | 0.03 | 96 | 1014.5 | |
| 20260906094016 | 20 | 0.0 | 3.2 | 0.00 | 0.36 | 0.03 | 95 | 1014.5 | |
| 20260906093016 | 21 | 0.0 | 3.2 | 0.00 | 0.36 | 0.03 | 96 | 1014.5 | |
| 20260906092016 | 20 | 315 | 1.6 | 1.6 | 0.00 | 0.36 | 0.03 | 96 | 1014.5 |
| 20260906091016 | 20 | 180 | 1.6 | 1.6 | 0.00 | 0.36 | 0.03 | 96 | 1014.5 |
| 20260906090016 | 20 | 0.0 | 1.6 | 0.00 | 0.36 | 0.03 | 96 | 1014.6 | |
| 20260906085016 | 20 | 0.0 | 0.0 | 0.00 | 0.36 | 0.03 | 96 | 1014.5 | |
| 20260906084016 | 20 | 0.0 | 0.0 | 0.00 | 0.36 | 0.03 | 96 | 1014.6 | |
| 20260906083021 | 21 | 0.0 | 3.2 | 0.00 | 0.36 | 0.03 | 95 | 1014.5 | |
| 20260906082016 | 21 | 0.0 | 0.0 | 0.00 | 0.36 | 0.03 | 96 | 1014.4 | |
| 20260906081016 | 21 | 0.0 | 0.0 | 0.00 | 0.36 | 0.03 | 95 | 1014.3 | |
| 20260906080016 | 21 | 0.0 | 3.2 | 0.00 | 0.36 | 0.03 | 96 | 1014.2 | |
| 20260906075036 | 21 | 0.0 | 0.0 | 0.00 | 0.36 | 0.03 | 96 | 1014.1 | |
| 20260906074036 | 21 | 0.0 | 0.0 | 0.00 | 0.36 | 0.03 | 96 | 1014.1 | |
| 20260906073016 | 21 | 0.0 | 0.0 | 0.00 | 0.36 | 0.03 | 95 | 1014.0 | |
| 20260906072016 | 21 | 0.0 | 3.2 | 0.00 | 0.36 | 0.03 | 96 | 1014.2 | |
| 20260906071016 | 21 | 0.0 | 0.0 | 0.03 | 0.36 | 0.03 | 95 | 1014.3 | |
| 20260906070036 | 21 | 0.0 | 3.2 | 0.03 | 0.36 | 0.03 | 95 | 1014.4 | |
| 20260906065016 | 21 | 0.0 | 1.6 | 0.03 | 0.36 | 0.03 | 95 | 1014.5 | |
| 20260906064037 | 21 | 0.0 | 0.0 | 0.03 | 0.36 | 0.03 | 95 | 1014.5 | |
| 20260906063015 | 21 | 0.0 | 3.2 | 0.03 | 0.36 | 0.03 | 95 | 1014.7 | |
| 20260906062016 | 21 | 0.0 | 3.2 | 0.03 | 0.36 | 0.03 | 96 | 1014.8 | |
| 20260906061016 | 21 | 0.0 | 1.6 | 0.00 | 0.33 | 0.00 | 95 | 1014.9 | |
| 20260906060035 | 21 | 0.0 | 0.0 | 0.00 | 0.33 | 0.00 | 95 | 1015.1 | |
| 20260906055016 | 21 | 0.0 | 3.2 | 0.00 | 0.33 | 0.00 | 96 | 1014.9 | |
| 20260906054015 | 21 | 0.0 | 3.2 | 0.00 | 0.33 | 0.00 | 95 | 1015.0 | |
| 20260906053035 | 21 | 0.0 | 0.0 | 0.00 | 0.33 | 0.00 | 95 | 1014.9 | |
| 20260906052017 | 21 | 0.0 | 3.2 | 0.00 | 0.33 | 0.00 | 95 | 1014.7 | |
| 20260906051017 | 21 | 0.0 | 3.2 | 0.00 | 0.33 | 0.00 | 95 | 1014.7 | |
| 20260906050018 | 21 | 0.0 | 3.2 | 0.00 | 0.33 | 0.00 | 95 | 1014.8 | |
| 20260906045015 | 21 | 0.0 | 1.6 | 0.00 | 0.33 | 0.00 | 95 | 1015.1 | |
| 20260906044038 | 21 | 0.0 | 3.2 | 0.00 | 0.33 | 0.00 | 95 | 1015.0 | |
| 20260906043017 | 21 | 0.0 | 0.0 | 0.00 | 0.33 | 0.00 | 95 | 1014.8 | |
| 20260906042037 | 21 | 0.0 | 3.2 | 0.00 | 0.33 | 0.00 | 95 | 1014.9 | |
| 20260906041017 | 21 | 0.0 | 3.2 | 0.00 | 0.33 | 0.00 | 95 | 1014.9 | |
| 20260906040017 | 21 | 0.0 | 0.0 | 0.00 | 0.33 | 0.33 | 95 | 1015.0 | |
| 20260906035016 | 21 | 0.0 | 0.0 | 0.00 | 0.33 | 0.33 | 95 | 1015.1 | |
| 20260906034016 | 21 | 0.0 | 3.2 | 0.00 | 0.33 | 0.33 | 95 | 1015.2 | |
| 20260906033016 | 21 | 0.0 | 3.2 | 0.00 | 0.33 | 0.33 | 95 | 1015.3 | |
| 20260906032016 | 21 | 0.0 | 3.2 | 0.00 | 0.33 | 0.33 | 95 | 1015.3 | |
| 20260906031016 | 21 | 0.0 | 3.2 | 0.00 | 0.33 | 0.33 | 95 | 1015.3 | |
| 20260906030016 | 21 | 0.0 | 1.6 | 0.00 | 0.33 | 0.33 | 95 | 1015.1 | |
| 20260906025016 | 21 | 0.0 | 1.6 | 0.00 | 0.33 | 0.33 | 95 | 1015.1 | |
| 20260906024016 | 21 | 315 | 1.6 | 1.6 | 0.00 | 0.33 | 0.33 | 94 | 1015.1 |
| 20260906023016 | 22 | 0.0 | 3.2 | 0.00 | 0.33 | 0.33 | 95 | 1014.8 | |
| 20260906022016 | 22 | 0.0 | 3.2 | 0.00 | 0.33 | 0.33 | 95 | 1014.8 | |
| 20260906021016 | 21 | 0.0 | 1.6 | 0.00 | 0.33 | 0.33 | 94 | 1014.8 | |
| 20260906020016 | 21 | 0.0 | 3.2 | 0.00 | 0.33 | 0.33 | 94 | 1014.3 | |
| 20260906015036 | 21 | 293 | 1.6 | 3.2 | 0.00 | 0.33 | 0.33 | 94 | 1014.4 |
| 20260906014027 | 21 | 0.0 | 3.2 | 0.00 | 0.33 | 0.33 | 94 | 1014.5 | |
| 20260906013016 | 22 | 0.0 | 0.0 | 0.00 | 0.33 | 0.33 | 93 | 1014.1 | |
| 20260906012016 | 22 | 293 | 1.6 | 1.6 | 0.00 | 0.33 | 0.33 | 93 | 1013.9 |
| 20260906011016 | 22 | 0.0 | 0.0 | 0.00 | 0.33 | 0.33 | 93 | 1014.0 | |
| 20260906010016 | 22 | 0.0 | 3.2 | 0.00 | 0.33 | 0.33 | 93 | 1013.8 | |
| 20260906005016 | 22 | 0.0 | 0.0 | 0.00 | 0.33 | 0.33 | 93 | 1013.7 | |
| 20260906004016 | 22 | 0.0 | 3.2 | 0.00 | 0.33 | 0.33 | 93 | 1013.6 | |
| 20260906003016 | 22 | 0 | 1.6 | 1.6 | 0.00 | 0.33 | 0.33 | 92 | 1013.4 |
| 20260906002036 | 22 | 0.0 | 0.0 | 0.00 | 0.33 | 0.33 | 92 | 1013.1 | |
| 20260906001016 | 22 | 0.0 | 1.6 | 0.00 | 0.33 | 0.33 | 92 | 1013.5 | |
| 20260906000015 | 22 | 0.0 | 1.6 | 0.00 | 0.33 | 0.33 | 92 | 1013.5 | |
| 20260905235016 | 23 | 0 | 1.6 | 3.2 | 0.00 | 0.33 | 0.33 | 91 | 1013.3 |
| 20260905234016 | 23 | 90 | 1.6 | 3.2 | 0.03 | 0.33 | 0.33 | 90 | 1013.4 |
| 20260905233035 | 23 | 0.0 | 3.2 | 0.25 | 0.33 | 0.33 | 89 | 1013.2 | |
| 20260905232015 | 23 | 270 | 1.6 | 9.7 | 0.25 | 0.33 | 0.33 | 89 | 1013.4 |
| 20260905231016 | 23 | 225 | 1.6 | 4.8 | 0.25 | 0.33 | 0.33 | 91 | 1013.3 |
| 20260905230016 | 23 | 315 | 1.6 | 6.4 | 0.33 | 0.33 | 0.33 | 88 | 1013.3 |
| 20260905225015 | 24 | 338 | 1.6 | 4.8 | 0.33 | 0.33 | 0.33 | 82 | 1013.3 |
| 20260905224016 | 26 | 0 | 9.7 | 24.1 | 0.30 | 0.30 | 0.30 | 71 | 1013.7 |
| 20260905223015 | 27 | 270 | 1.6 | 3.2 | 0.08 | 0.08 | 0.08 | 83 | 1013.8 |
| 20260905222015 | 27 | 0.0 | 3.2 | 0.08 | 0.08 | 0.08 | 84 | 1013.5 | |
| 20260905221018 | 27 | 315 | 1.6 | 4.8 | 0.08 | 0.08 | 0.08 | 81 | 1013.6 |
| 20260905220015 | 28 | 293 | 3.2 | 8.0 | 0.00 | 0.00 | 0.00 | 74 | 1013.9 |
| 20260905215056 | 30 | 0.0 | 3.2 | 0.00 | 0.00 | 0.00 | 70 | 1013.6 | |
| 20260905214015 | 30 | 0.0 | 3.2 | 0.00 | 0.00 | 0.00 | 68 | 1013.8 | |
| 20260905213017 | 31 | 158 | 1.6 | 3.2 | 0.00 | 0.00 | 0.00 | 65 | 1014.0 |